Du Bois, PA

2:19 PM EDT on October 21, 2017 (GMT -0400)
Du Bois-Jefferson County

Weather History for KDUJ - December, 2011

Change the Weather History Date:

Thursday, December 29, 2011

  Actual Average Record
Temperature  
Mean Temperature 23 °F 25 °F  
Max Temperature 34 °F 32 °F 60 °F (1984)
Min Temperature 11 °F 18 °F -3 °F (1976)
Degree Days  
Heating Degree Days 42 40  
Month to date heating degree days 918 1064  
Since 1 July heating degree days 1839 2581  
Cooling Degree Days 0 0  
Month to date cooling degree days 0 0  
Year to date cooling degree days 0 362  
Moisture  
Dew Point 24 °F    
Average Humidity 83    
Maximum Humidity 92    
Minimum Humidity 73    
Precipitation  
Precipitation 0.01 in 0.10 in 0.58 in (2013)
Month to date precipitation 2.82 2.94  
Sea Level Pressure  
Sea Level Pressure 29.86 in    
Wind  
Wind Speed 4 mph (SSE)    
Max Wind Speed 12 mph    
Max Gust Speed 18 mph    
Visibility 8 miles    
Events Snow    
T = Trace of Precipitation, MM = Missing Value Source: NWS Daily Summary

Daily Weather History Graph

Daily Weather History Graph

Search for Another Location

Airport or City:

Trip Planner

Search our weather history database for the weather conditions in past years. The results will help you decide how hot, cold, wet, or windy it might be!

Date:

Astronomy

Dec. 29, 2011 Rise Set
Actual Time 7:40 AM EST 4:54 PM EST
Civil Twilight 7:09 AM EST 5:25 PM EST
Nautical Twilight 6:34 AM EST 6:00 PM EST
Astronomical Twilight 6:01 AM EST 6:34 PM EST
Moon 10:30 AM EST (12/29) 10:33 PM EST (12/29)
Length of Visible Light 10h 16m
Length of Day
9h 14m
Waxing Crescent, 26% of the Moon is Illuminated
Dec 29
Waxing Crescent
Jan 1
First Quarter
Jan 9
Full
Jan 16
Last Quarter
Jan 23
New

Hourly Weather History & Observations

Time (EST) Temp. Windchill Dew Point Humidity Pressure Visibility Wind Dir Wind Speed Gust Speed Precip Events Conditions
12:56 AM 15.1 °F 7.7 °F 10.0 °F 80% 30.00 in 10.0 mi West 4.6 mph - N/A   Clear
1:56 AM 15.1 °F 9.4 °F 10.9 °F 84% 29.99 in 10.0 mi WNW 3.5 mph - N/A   Clear
2:56 AM 12.9 °F - 10.0 °F 88% 30.00 in 10.0 mi Calm Calm - N/A   Scattered Clouds
3:56 AM 14.0 °F - 10.9 °F 88% 29.99 in 10.0 mi Calm Calm - N/A   Overcast
4:56 AM 14.0 °F - 10.9 °F 88% 29.97 in 10.0 mi Calm Calm - N/A   Overcast
5:56 AM 12.0 °F - 10.0 °F 92% 29.99 in 10.0 mi Calm Calm - N/A   Clear
7:15 AM 15.8 °F 8.6 °F 12.2 °F 86% 29.91 in 10.0 mi South 4.6 mph - N/A   Mostly Cloudy
7:56 AM 15.1 °F 9.4 °F 12.0 °F 88% 30.00 in 10.0 mi SSE 3.5 mph - N/A   Partly Cloudy
8:56 AM 17.6 °F 12.3 °F 14.0 °F 86% 29.92 in 10.0 mi South 3.5 mph - N/A   Scattered Clouds
9:56 AM 19.9 °F 13.4 °F 17.1 °F 89% 30.00 in 10.0 mi South 4.6 mph - N/A   Mostly Cloudy
10:18 AM 21.2 °F 14.9 °F 17.6 °F 86% 29.91 in 10.0 mi SSE 4.6 mph - N/A   Overcast
11:23 AM 24.8 °F 17.9 °F 19.4 °F 80% 29.88 in 5.0 mi South 5.8 mph - 0.00 in Snow Light Snow
11:56 AM 26.1 °F 20.5 °F 21.9 °F 84% 29.94 in 9.0 mi South 4.6 mph - 0.00 in   Overcast
12:47 PM 26.6 °F 20.0 °F 24.8 °F 93% 29.83 in 10.0 mi South 5.8 mph - N/A   Overcast
12:56 PM 28.0 °F 22.8 °F 24.1 °F 85% 29.90 in 10.0 mi South 4.6 mph - N/A   Overcast
1:18 PM 28.4 °F 23.3 °F 24.8 °F 86% 29.82 in 10.0 mi SSE 4.6 mph - N/A   Overcast
1:26 PM 28.4 °F 23.3 °F 24.8 °F 86% 29.81 in 10.0 mi South 4.6 mph - N/A   Overcast
1:56 PM 30.2 °F 23.4 °F 26.6 °F 86% 29.79 in 10.0 mi Variable 6.9 mph - N/A   Overcast
2:43 PM 30.2 °F 24.3 °F 26.6 °F 86% 29.78 in 10.0 mi SSE 5.8 mph - N/A   Overcast
2:56 PM 32.0 °F 28.7 °F 27.0 °F 82% 29.86 in 10.0 mi South 3.5 mph - N/A   Overcast
3:03 PM 32.0 °F 27.5 °F 26.6 °F 80% 29.78 in 10.0 mi SSE 4.6 mph - N/A   Overcast
4:07 PM 32.0 °F 26.4 °F 28.4 °F 87% 29.78 in 2.0 mi South 5.8 mph - 0.00 in Snow Light Snow
4:23 PM 32.0 °F 26.4 °F 28.4 °F 87% 29.78 in 5.0 mi SSE 5.8 mph - 0.00 in Snow Light Snow
4:56 PM 32.0 °F 27.5 °F 28.9 °F 88% 29.85 in 1.8 mi SSE 4.6 mph - 0.00 in Snow Light Snow
5:02 PM 32.0 °F 25.6 °F 28.4 °F 87% 29.78 in 3.0 mi South 6.9 mph - 0.00 in Snow Light Snow
5:13 PM 32.0 °F 26.4 °F 30.2 °F 93% 29.78 in 1.8 mi SSE 5.8 mph - 0.00 in Snow Light Snow
5:19 PM 32.0 °F 25.6 °F 30.2 °F 93% 29.78 in 2.0 mi SSE 6.9 mph - 0.01 in Snow Light Snow
5:56 PM 32.0 °F 27.5 °F 30.0 °F 92% 29.86 in 10.0 mi SSE 4.6 mph - 0.01 in   Overcast
6:34 PM 32.0 °F 27.5 °F 30.2 °F 93% 29.78 in 1.8 mi SSE 4.6 mph - 0.00 in Snow Light Snow
6:47 PM 32.0 °F 25.6 °F 30.2 °F 93% 29.78 in 2.0 mi SE 6.9 mph - 0.00 in Snow Light Snow
6:56 PM 32.0 °F 26.4 °F 30.9 °F 96% 29.85 in 4.0 mi SE 5.8 mph - 0.00 in Snow Light Snow
7:06 PM 32.0 °F 26.4 °F 30.2 °F 93% 29.78 in 3.0 mi SE 5.8 mph - 0.00 in Snow Light Snow
7:30 PM 32.0 °F 24.8 °F 30.2 °F 93% 29.78 in 4.0 mi SE 8.1 mph - 0.00 in Snow Light Snow
7:56 PM 32.0 °F 26.4 °F 30.9 °F 96% 29.85 in 8.0 mi SE 5.8 mph - 0.00 in   Overcast
8:06 PM 32.0 °F 27.5 °F 30.2 °F 93% 29.78 in 8.0 mi SE 4.6 mph - N/A   Overcast
8:52 PM 32.0 °F 25.6 °F 30.2 °F 93% 29.79 in 6.0 mi SE 6.9 mph - N/A   Overcast
8:56 PM 32.0 °F 24.8 °F 30.2 °F 93% 29.79 in 6.0 mi SSE 8.1 mph - N/A   Overcast
9:56 PM 33.1 °F 27.7 °F 30.9 °F 92% 29.86 in 8.0 mi SSE 5.8 mph - 0.00 in Snow Light Snow
10:56 PM 34.0 °F 26.6 °F 30.9 °F 89% 29.84 in 9.0 mi SSE 9.2 mph 18.4 mph 0.00 in   Overcast
11:56 PM 33.1 °F 28.7 °F 30.9 °F 92% 29.83 in 10.0 mi SE 4.6 mph - N/A   Overcast